Flag for Rwanda Weather past 2 weeks in Gitarama, Rwanda

Now
81 °F

Scattered clouds.


Feels Like: 81 °F
Forecast: 63 / 77 °F
Wind: 9 mph from East

Location: Kigali Airport

Current Time: Sep 18, 2014 at 12:43:29 PM

Latest Report: Sep 18, 2014 at 12:00 PM


Visibility: N/A

Pressure: 30.12 "Hg

Humidity: 45%

Dew point: 57 °F

Location of GitaramaLocation

Historic Weather in Gitarama — Graph

°F

Gitarama temperature yesterday

Maximum temperature yesterday: 79 °F (at 10:30 AM)
Minimum temperature yesterday: 64 °F (at 2:00 AM)
Average temperature yesterday: 70 °F

Past Weeks' High & Low Weather Summary

 TemperatureHumidityPressure
High86 °F (Sep 12, 3:00 PM)100% (Sep 4, 1:00 AM)30.30 "Hg (Sep 4, 1:00 AM)
Low52 °F (Sep 11, 2:00 AM)32% (Sep 12, 5:30 PM)30.01 "Hg (Sep 10, 4:00 PM)
Average69 °F76%30.14 "Hg
* Reported Sep 3 12:00 Noon — Sep 18 12:00 Noon, Gitarama, Weather by CustomWeather, © 2014

Note: Actual official high and low records may vary slightly from our data, if they occured in-between our weather recording intervals... More about our weather records

Advertising

Gitarama weather history for previous 24 hours

 ConditionsComfort  
Time TempWeatherWind HumidityBarometerVisibility
12:00 PM
Sep 18
81 °FScattered clouds.9 mph45%30.12 "HgN/A
11:30 AM82 °FPartly sunny.6 mph48%30.12 "HgN/A
11:00 AM79 °FScattered clouds.5 mph54%30.15 "HgN/A
10:00 AM75 °FPassing clouds.7 mph65%30.18 "HgN/A
9:30 AM75 °FPassing clouds.5 mph65%30.18 "HgN/A
9:00 AM73 °FPassing clouds.No wind65%30.15 "HgN/A
8:30 AM70 °FPassing clouds.3 mph78%30.15 "HgN/A
8:00 AM66 °FScattered clouds.No wind88%30.15 "HgN/A
7:30 AM64 °FScattered clouds.No wind100%30.15 "HgN/A
7:00 AM63 °FScattered clouds.No wind100%30.15 "HgN/A
6:30 AM63 °FScattered clouds.No wind100%30.12 "HgN/A
6:00 AM63 °FScattered clouds.No wind100%30.12 "HgN/A
5:30 AM63 °FPassing clouds.No wind94%30.12 "HgN/A
5:00 AM61 °FPassing clouds.No wind100%30.09 "HgN/A
4:30 AM61 °FPassing clouds.No wind100%30.07 "HgN/A
4:00 AM61 °FPassing clouds.No wind100%30.07 "HgN/A
3:00 AM63 °FPassing clouds.No wind94%30.07 "HgN/A
2:30 AM63 °FPassing clouds.No wind94%30.07 "HgN/A
2:00 AM63 °FPassing clouds.No wind94%30.07 "HgN/A
1:30 AM64 °FPassing clouds.No wind88%30.07 "HgN/A
1:00 AM64 °FPassing clouds.No wind88%30.07 "HgN/A
12:30 AM64 °FPassing clouds.No wind88%30.09 "HgN/A
12:00 AM64 °FPassing clouds.No wind88%30.09 "HgN/A
11:30 PM
Sep 17
66 °FPassing clouds.No wind83%30.12 "HgN/A
11:00 PM66 °FPassing clouds.No wind83%30.12 "HgN/A
10:30 PM68 °FPassing clouds.No wind78%30.12 "HgN/A
10:00 PM68 °FPassing clouds.No wind78%30.12 "HgN/A
9:30 PM68 °FPassing clouds.5 mph78%30.09 "HgN/A
9:00 PM68 °FPassing clouds.5 mph73%30.09 "HgN/A
8:30 PM70 °FPassing clouds.6 mph73%30.09 "HgN/A
8:00 PM70 °FPassing clouds.3 mph73%30.07 "HgN/A
7:30 PM70 °FPassing clouds.3 mph78%30.07 "HgN/A
7:00 PM70 °FPassing clouds.3 mph73%30.07 "HgN/A
6:00 PM70 °FPassing clouds.7 mph78%30.07 "HgN/A
5:30 PM72 °FScattered clouds.7 mph73%30.04 "HgN/A
5:00 PM72 °FScattered clouds.7 mph73%30.04 "HgN/A
4:30 PM73 °FScattered clouds.9 mph69%30.04 "HgN/A
4:00 PM73 °FScattered clouds.9 mph74%30.01 "HgN/A
3:30 PM77 °FScattered clouds.7 mph69%30.04 "HgN/A
3:00 PM77 °FScattered clouds.7 mph65%30.04 "HgN/A
1:30 PM75 °FScattered clouds.3 mph69%30.07 "HgN/A
12:30 PM64 °FPartly sunny.7 mph100%30.15 "HgN/A
12:00 PM64 °FLight rain. Partly sunny.5 mph100%30.15 "Hg5 mi
Weather by CustomWeather, © 2014

See weather overviewHow to use our weather pages